Time,TemperatureF,DewpointF,PressureIn,WindDirection,WindDirectionDegrees,WindSpeedMPH,WindSpeedGustMPH,Humidity,HourlyPrecipIn,Conditions,Clouds,dailyrainin,SoftwareType,DateUTC
2014-01-23 00:15:00,7.4,1.0,30.14,NE,49,0.0,5.0,75,0.00,,,0.00,weatherlink.com 1.10,2014-01-23 05:15:00,
2014-01-23 00:33:00,7.4,2.0,30.14,ENE,64,1.0,8.0,78,0.00,,,0.00,weatherlink.com 1.10,2014-01-23 05:33:00,
2014-01-23 00:51:00,7.3,2.0,30.13,ENE,58,4.0,6.0,80,0.00,,,0.00,weatherlink.com 1.10,2014-01-23 05:51:00,
2014-01-23 01:11:00,7.4,3.0,30.13,NE,44,3.0,6.0,81,0.00,,,0.00,weatherlink.com 1.10,2014-01-23 06:11:00,
2014-01-23 01:29:00,7.3,3.0,30.13,ENE,68,3.0,8.0,82,0.00,,,0.00,weatherlink.com 1.10,2014-01-23 06:29:00,
2014-01-23 01:47:00,7.2,3.0,30.13,ENE,65,2.0,5.0,83,0.00,,,0.00,weatherlink.com 1.10,2014-01-23 06:47:00,
2014-01-23 02:07:00,6.9,3.0,30.13,ENE,67,2.0,5.0,83,0.00,,,0.00,weatherlink.com 1.10,2014-01-23 07:07:00,
2014-01-23 02:25:00,6.6,3.0,30.13,NE,53,1.0,3.0,84,0.00,,,0.00,weatherlink.com 1.10,2014-01-23 07:25:00,
2014-01-23 02:43:00,6.9,3.0,30.14,ENE,75,2.0,3.0,85,0.00,,,0.00,weatherlink.com 1.10,2014-01-23 07:43:00,
2014-01-23 03:01:00,7.5,4.0,30.14,ENE,64,1.0,4.0,84,0.00,,,0.00,weatherlink.com 1.10,2014-01-23 08:01:00,
2014-01-23 03:21:00,7.9,4.0,30.14,ENE,61,1.0,6.0,84,0.00,,,0.00,weatherlink.com 1.10,2014-01-23 08:21:00,
2014-01-23 03:39:00,8.1,4.0,30.14,ESE,108,2.0,6.0,84,0.00,,,0.00,weatherlink.com 1.10,2014-01-23 08:39:00,
2014-01-23 03:57:00,8.3,4.0,30.14,ENE,74,0.0,8.0,84,0.00,,,0.00,weatherlink.com 1.10,2014-01-23 08:57:00,
2014-01-23 04:15:00,8.4,5.0,30.14,East,86,0.0,5.0,84,0.00,,,0.00,weatherlink.com 1.10,2014-01-23 09:15:00,
2014-01-23 04:35:00,8.5,5.0,30.14,NE,54,0.0,5.0,85,0.00,,,0.00,weatherlink.com 1.10,2014-01-23 09:35:00,
2014-01-23 04:53:00,8.5,5.0,30.14,ENE,68,1.0,5.0,86,0.00,,,0.00,weatherlink.com 1.10,2014-01-23 09:53:00,
2014-01-23 05:11:00,8.5,5.0,30.14,ENE,60,1.0,5.0,86,0.00,,,0.00,weatherlink.com 1.10,2014-01-23 10:11:00,
2014-01-23 05:31:00,8.6,6.0,30.14,ENE,67,1.0,3.0,87,0.00,,,0.00,weatherlink.com 1.10,2014-01-23 10:31:00,
2014-01-23 05:49:00,8.8,6.0,30.15,NE,56,1.0,4.0,87,0.00,,,0.00,weatherlink.com 1.10,2014-01-23 10:49:00,
2014-01-23 06:07:00,9.1,6.0,30.15,East,80,0.0,6.0,88,0.00,,,0.00,weatherlink.com 1.10,2014-01-23 11:07:00,
2014-01-23 06:27:00,9.5,7.0,30.16,NE,47,3.0,5.0,88,0.00,,,0.00,weatherlink.com 1.10,2014-01-23 11:27:00,
2014-01-23 06:45:00,9.6,7.0,30.17,NE,53,4.0,9.0,88,0.00,,,0.00,weatherlink.com 1.10,2014-01-23 11:45:00,
2014-01-23 07:03:00,9.6,7.0,30.17,ENE,75,0.0,6.0,88,0.00,,,0.00,weatherlink.com 1.10,2014-01-23 12:03:00,
2014-01-23 07:23:00,9.9,7.0,30.18,East,95,4.0,7.0,88,0.00,,,0.00,weatherlink.com 1.10,2014-01-23 12:23:00,
2014-01-23 07:41:00,10.1,7.0,30.18,East,89,5.0,9.0,88,0.00,,,0.00,weatherlink.com 1.10,2014-01-23 12:41:00,
2014-01-23 08:00:00,10.1,7.0,30.18,East,86,0.0,6.0,88,0.00,,,0.00,weatherlink.com 1.10,2014-01-23 13:00:00,
2014-01-23 08:18:00,10.5,7.0,30.19,NE,41,3.0,7.0,87,0.00,,,0.00,weatherlink.com 1.10,2014-01-23 13:18:00,
2014-01-23 08:36:00,11.1,8.0,30.20,ENE,60,3.0,9.0,87,0.00,,,0.00,weatherlink.com 1.10,2014-01-23 13:36:00,
2014-01-23 08:57:00,11.5,8.0,30.21,East,80,5.0,10.0,86,0.00,,,0.00,weatherlink.com 1.10,2014-01-23 13:57:00,
2014-01-23 09:14:00,11.9,8.0,30.22,ENE,77,5.0,10.0,85,0.00,,,0.00,weatherlink.com 1.10,2014-01-23 14:14:00,
2014-01-23 09:32:00,12.1,8.0,30.23,ESE,110,5.0,10.0,84,0.00,,,0.00,weatherlink.com 1.10,2014-01-23 14:32:00,
2014-01-23 09:50:00,12.2,8.0,30.25,East,83,1.0,9.0,84,0.00,,,0.00,weatherlink.com 1.10,2014-01-23 14:50:00,
2014-01-23 10:10:00,12.7,8.0,30.25,SE,138,5.0,12.0,81,0.00,,,0.00,weatherlink.com 1.10,2014-01-23 15:10:00,
2014-01-23 10:28:00,12.6,8.0,30.26,East,91,1.0,8.0,82,0.00,,,0.00,weatherlink.com 1.10,2014-01-23 15:28:00,
2014-01-23 10:46:00,12.6,7.0,30.27,SE,138,6.0,11.0,78,0.00,,,0.00,weatherlink.com 1.10,2014-01-23 15:46:00,
2014-01-23 11:06:00,12.6,6.0,30.28,SE,125,2.0,13.0,75,0.00,,,0.00,weatherlink.com 1.10,2014-01-23 16:06:00,
2014-01-23 11:24:00,13.5,6.0,30.29,ENE,67,6.0,8.0,73,0.00,,,0.00,weatherlink.com 1.10,2014-01-23 16:24:00,
2014-01-23 11:42:00,13.2,7.0,30.29,East,80,4.0,10.0,75,0.00,,,0.00,weatherlink.com 1.10,2014-01-23 16:42:00,
2014-01-23 12:02:00,13.6,7.0,30.29,SE,138,4.0,12.0,76,0.00,,,0.00,weatherlink.com 1.10,2014-01-23 17:02:00,
2014-01-23 12:20:00,14.3,5.0,30.28,ESE,118,9.0,12.0,66,0.00,,,0.00,weatherlink.com 1.10,2014-01-23 17:20:00,
2014-01-23 12:38:00,13.3,4.0,30.29,SE,138,8.0,16.0,67,0.00,,,0.00,weatherlink.com 1.10,2014-01-23 17:38:00,
2014-01-23 12:56:00,13.2,6.0,30.29,East,98,9.0,22.0,74,0.00,,,0.00,weatherlink.com 1.10,2014-01-23 17:56:00,
2014-01-23 13:16:00,13.6,4.0,30.30,ESE,105,5.0,15.0,65,0.00,,,0.00,weatherlink.com 1.10,2014-01-23 18:16:00,
2014-01-23 13:34:00,13.6,6.0,30.30,SE,136,4.0,13.0,70,0.00,,,0.00,weatherlink.com 1.10,2014-01-23 18:34:00,
2014-01-23 13:52:00,12.7,8.0,30.31,SE,134,5.0,11.0,82,0.00,,,0.00,weatherlink.com 1.10,2014-01-23 18:52:00,
2014-01-23 14:12:00,13.2,5.0,30.32,SE,139,15.0,15.0,71,0.00,,,0.00,weatherlink.com 1.10,2014-01-23 19:12:00,
2014-01-23 14:30:00,13.5,5.0,30.32,NNE,25,6.0,15.0,68,0.00,,,0.00,weatherlink.com 1.10,2014-01-23 19:30:00,
2014-01-23 14:48:00,13.4,5.0,30.33,ESE,122,6.0,11.0,70,0.00,,,0.00,weatherlink.com 1.10,2014-01-23 19:48:00,
2014-01-23 15:08:00,13.3,6.0,30.34,NNE,29,10.0,14.0,71,0.00,,,0.00,weatherlink.com 1.10,2014-01-23 20:08:00,
2014-01-23 15:26:00,12.7,5.0,30.35,SE,127,10.0,15.0,71,0.00,,,0.00,weatherlink.com 1.10,2014-01-23 20:26:00,
2014-01-23 15:44:00,11.8,5.0,30.36,East,94,7.0,16.0,73,0.00,,,0.00,weatherlink.com 1.10,2014-01-23 20:44:00,
2014-01-23 16:02:00,11.8,3.0,30.38,East,95,4.0,11.0,69,0.00,,,0.00,weatherlink.com 1.10,2014-01-23 21:02:00,
2014-01-23 16:22:00,10.6,5.0,30.39,SSE,148,1.0,11.0,79,0.00,,,0.00,weatherlink.com 1.10,2014-01-23 21:22:00,
2014-01-23 16:40:00,10.0,6.0,30.40,ESE,104,8.0,12.0,84,0.00,,,0.00,weatherlink.com 1.10,2014-01-23 21:40:00,
2014-01-23 16:58:00,9.6,6.0,30.41,East,100,2.0,11.0,86,0.00,,,0.00,weatherlink.com 1.10,2014-01-23 21:58:00,
2014-01-23 17:18:00,9.2,6.0,30.42,SE,124,2.0,13.0,87,0.00,,,0.00,weatherlink.com 1.10,2014-01-23 22:18:00,
2014-01-23 17:36:00,9.0,6.0,30.43,ESE,116,1.0,9.0,88,0.00,,,0.00,weatherlink.com 1.10,2014-01-23 22:36:00,
2014-01-23 17:54:00,8.9,6.0,30.44,East,83,4.0,6.0,89,0.00,,,0.00,weatherlink.com 1.10,2014-01-23 22:54:00,
2014-01-23 18:12:00,8.7,6.0,30.45,ESE,110,2.0,6.0,89,0.00,,,0.00,weatherlink.com 1.10,2014-01-23 23:12:00,
2014-01-23 18:32:00,8.5,6.0,30.46,ESE,102,7.0,8.0,89,0.00,,,0.00,weatherlink.com 1.10,2014-01-23 23:32:00,
2014-01-23 18:50:00,8.5,6.0,30.46,SE,132,1.0,5.0,90,0.00,,,0.00,weatherlink.com 1.10,2014-01-23 23:50:00,
2014-01-23 19:08:00,8.1,6.0,30.47,ESE,105,0.0,4.0,89,0.00,,,0.00,weatherlink.com 1.10,2014-01-24 00:08:00,
2014-01-23 19:28:00,7.7,5.0,30.48,ESE,113,1.0,7.0,90,0.00,,,0.00,weatherlink.com 1.10,2014-01-24 00:28:00,
2014-01-23 19:47:00,7.5,5.0,30.48,East,94,1.0,8.0,89,0.00,,,0.00,weatherlink.com 1.10,2014-01-24 00:47:00,
2014-01-23 20:05:00,6.9,4.0,30.49,ESE,103,0.0,9.0,89,0.00,,,0.00,weatherlink.com 1.10,2014-01-24 01:05:00,
2014-01-23 20:22:00,7.0,5.0,30.49,ESE,119,3.0,6.0,89,0.00,,,0.00,weatherlink.com 1.10,2014-01-24 01:22:00,
2014-01-23 20:40:00,7.3,5.0,30.49,East,91,3.0,10.0,89,0.00,,,0.00,weatherlink.com 1.10,2014-01-24 01:40:00,
2014-01-23 21:00:00,7.2,5.0,30.50,ENE,71,2.0,7.0,89,0.00,,,0.00,weatherlink.com 1.10,2014-01-24 02:00:00,
2014-01-23 21:18:00,7.1,5.0,30.50,East,95,5.0,10.0,89,0.00,,,0.00,weatherlink.com 1.10,2014-01-24 02:18:00,
2014-01-23 21:36:00,6.7,4.0,30.51,ENE,69,2.0,10.0,88,0.00,,,0.00,weatherlink.com 1.10,2014-01-24 02:36:00,
2014-01-23 21:56:00,6.2,3.0,30.51,NE,44,4.0,11.0,88,0.00,,,0.00,weatherlink.com 1.10,2014-01-24 02:56:00,
2014-01-23 22:14:00,5.8,3.0,30.51,ENE,58,3.0,11.0,88,0.00,,,0.00,weatherlink.com 1.10,2014-01-24 03:14:00,
2014-01-23 22:32:00,5.4,2.0,30.51,ESE,117,3.0,8.0,87,0.00,,,0.00,weatherlink.com 1.10,2014-01-24 03:32:00,
2014-01-23 22:50:00,5.1,2.0,30.52,North,11,5.0,8.0,88,0.00,,,0.00,weatherlink.com 1.10,2014-01-24 03:50:00,
2014-01-23 23:10:00,4.6,2.0,30.52,East,83,6.0,10.0,87,0.00,,,0.00,weatherlink.com 1.10,2014-01-24 04:10:00,
2014-01-23 23:28:00,4.4,1.0,30.53,ESE,119,2.0,10.0,87,0.00,,,0.00,weatherlink.com 1.10,2014-01-24 04:28:00,
2014-01-23 23:46:00,4.2,1.0,30.53,NE,49,8.0,11.0,87,0.00,,,0.00,weatherlink.com 1.10,2014-01-24 04:46:00,